Airfield :







YOU CAN JOIN US ON...

 
LOGIN :

Register | Disclaimer

   EN    FR    IT 

 









Legend :    VFR   Marginal VFR   IFR   Intensive IFR   Very Intensive IFR
Visi :
Ceiling :
>= 8 km
>= 3000ft
5 to 8 km
1000 to 3000 ft
1500m to 5 km
500 to 1000 ft
800 to 1500m
200 to 500 ft
< 800m
< 200 ft
Symbols :   Thunderstorms  Fog  Heavy snow  Heavy precipitations  Wind > 20 kt






- Airport Elevation : 92 ft
- IATA code : YZX


CYZX - CFB Greenwood

CURRENT METAR :
  • 170400Z 33009G15KT 15SM SKC M03/M09 A3044 RMK SLP309

EXPIRED METARs :
  • 170300Z 31005KT 15SM SKC M03/M09 A3044 RMK SLP308
  • 170200Z 31006KT 15SM FEW034 M03/M10 A3043 RMK SC1 SLP306

TAF TAF CYZX
Valid from the 17 at 00:00 until the 18 at 00:00 UTC


162330Z 1700/1724 31010G20KT P6SM FEW040
BECMG 1704/1706 34007KT
FM171800 10005KT P6SM BKN250 RMK NXT FCST BY 170600Z



MET'MAP, your aeronautical weather chart ! - Copyright ORBIFLY December 2007 - Disclaimer

ORBIFLY MET'MAP TEAM :

Programming & Development : Alexandra Zaïnal
Concept & Development : Baudouin d'Aumeries
Co-Development & Prog : Marc-Olivier Méhu
Technical & hardware support : Manuel Goepfert

Contact : metmap@orbifly.com




SOURCES & CREDITS :

   NOAA